| time (UTC) | temp F | wind direction | speed MPH | gust MPH | rain 1hr in | rain 24hr in | rain mn in | humidity % | barometer mb |
| 20260905042006 | 67 | 214 | 17.0 | 17.0 | 0.00 | 0.00 | 0.00 | 19 | |
| 20260905041508 | 67 | 193 | 18.0 | 15.0 | 0.00 | 0.00 | 0.00 | 20 | |
| 20260905041010 | 67 | 183 | 16.0 | 15.0 | 0.00 | 0.00 | 0.00 | 21 | |
| 20260905040513 | 67 | 193 | 18.0 | 19.0 | 0.00 | 0.00 | 0.00 | 23 | |
| 20260905040015 | 67 | 205 | 15.0 | 19.0 | 0.00 | 0.00 | 0.00 | 25 | |
| 20260905035517 | 67 | 187 | 14.0 | 16.0 | 0.00 | 0.00 | 0.00 | 25 | |
| 20260905035016 | 68 | 191 | 19.0 | 15.0 | 0.00 | 0.00 | 0.00 | 24 | |
| 20260905034519 | 68 | 193 | 18.0 | 21.0 | 0.00 | 0.00 | 0.00 | 24 | |
| 20260905033523 | 68 | 190 | 19.0 | 15.0 | 0.00 | 0.00 | 0.00 | 25 | |
| 20260905033026 | 68 | 193 | 20.0 | 19.0 | 0.00 | 0.00 | 0.00 | 25 | |
| 20260905032528 | 68 | 198 | 20.0 | 26.0 | 0.00 | 0.00 | 0.00 | 26 | |
| 20260905032028 | 68 | 205 | 21.0 | 23.0 | 0.00 | 0.00 | 0.00 | 26 | |
| 20260905031529 | 68 | 207 | 19.0 | 17.0 | 0.00 | 0.00 | 0.00 | 25 | |
| 20260905031032 | 68 | 191 | 19.0 | 22.0 | 0.00 | 0.00 | 0.00 | 25 | |
| 20260905030534 | 68 | 208 | 21.0 | 16.0 | 0.00 | 0.00 | 0.00 | 25 | |
| 20260905030036 | 68 | 186 | 21.0 | 14.0 | 0.00 | 0.00 | 0.00 | 25 | |
| 20260905025538 | 68 | 201 | 21.0 | 22.0 | 0.00 | 0.00 | 0.00 | 25 | |
| 20260905025038 | 68 | 210 | 19.0 | 17.0 | 0.00 | 0.00 | 0.00 | 25 | |
| 20260905024540 | 69 | 194 | 16.0 | 21.0 | 0.00 | 0.00 | 0.00 | 25 | |
| 20260905024042 | 69 | 200 | 19.0 | 21.0 | 0.00 | 0.00 | 0.00 | 25 | |
| 20260905023544 | 69 | 212 | 19.0 | 17.0 | 0.00 | 0.00 | 0.00 | 24 | |
| 20260905023047 | 69 | 191 | 18.0 | 22.0 | 0.00 | 0.00 | 0.00 | 23 | |
| 20260905022549 | 69 | 193 | 22.0 | 21.0 | 0.00 | 0.00 | 0.00 | 22 | |
| 20260905022048 | 69 | 195 | 17.0 | 16.0 | 0.00 | 0.00 | 0.00 | 22 | |
| 20260905021550 | 70 | 181 | 21.0 | 23.0 | 0.00 | 0.00 | 0.00 | 21 | |
| 20260905021053 | 70 | 183 | 26.0 | 23.0 | 0.00 | 0.00 | 0.00 | 21 | |
| 20260905020555 | 70 | 186 | 23.0 | 17.0 | 0.00 | 0.00 | 0.00 | 20 | |
| 20260905020058 | 70 | 190 | 20.0 | 20.0 | 0.00 | 0.00 | 0.00 | 19 | |
| 20260905015059 | 71 | 184 | 19.0 | 19.0 | 0.00 | 0.00 | 0.00 | 16 | |
| 20260905014601 | 71 | 200 | 19.0 | 17.0 | 0.00 | 0.00 | 0.00 | 15 | |
| 20260905014103 | 72 | 207 | 20.0 | 21.0 | 0.00 | 0.00 | 0.00 | 15 | |
| 20260905013605 | 72 | 190 | 20.0 | 20.0 | 0.00 | 0.00 | 0.00 | 14 | |
| 20260905013108 | 72 | 191 | 18.0 | 18.0 | 0.00 | 0.00 | 0.00 | 13 | |
| 20260905012610 | 72 | 187 | 20.0 | 20.0 | 0.00 | 0.00 | 0.00 | 12 | |
| 20260905012109 | 72 | 201 | 25.0 | 26.0 | 0.00 | 0.00 | 0.00 | 12 | |
| 20260905011114 | 73 | 198 | 20.0 | 18.0 | 0.00 | 0.00 | 0.00 | 13 | |
| 20260905010617 | 0 | 167 | 19.0 | 0.0 | 0.00 | 0.00 | 0.00 | ||
| 20260905010118 | 73 | 184 | 23.0 | 18.0 | 0.00 | 0.00 | 0.00 | 15 | |
| 20260905005621 | 73 | 194 | 19.0 | 18.0 | 0.00 | 0.00 | 0.00 | 15 | |
| 20260905005120 | 73 | 187 | 14.0 | 22.0 | 0.00 | 0.00 | 0.00 | 13 | |
| 20260905004622 | 73 | 183 | 19.0 | 25.0 | 0.00 | 0.00 | 0.00 | 12 | |
| 20260905004124 | 73 | 195 | 17.0 | 17.0 | 0.00 | 0.00 | 0.00 | 11 | |
| 20260905003626 | 73 | 180 | 19.0 | 22.0 | 0.00 | 0.00 | 0.00 | 12 | |
| 20260905003129 | 74 | 194 | 23.0 | 30.0 | 0.00 | 0.00 | 0.00 | 12 | |
| 20260905002631 | 74 | 180 | 22.0 | 21.0 | 0.00 | 0.00 | 0.00 | 10 | |
| 20260905002130 | 74 | 195 | 22.0 | 23.0 | 0.00 | 0.00 | 0.00 | 11 | |
| 20260905001633 | 74 | 203 | 21.0 | 30.0 | 0.00 | 0.00 | 0.00 | 9 | |
| 20260905001135 | 74 | 188 | 24.0 | 22.0 | 0.00 | 0.00 | 0.00 | 9 | |
| 20260905000637 | 74 | 190 | 22.0 | 23.0 | 0.00 | 0.00 | 0.00 | 8 | |
| 20260905000139 | 74 | 191 | 24.0 | 22.0 | 0.00 | 0.00 | 0.00 | 8 | |
| 20260904235641 | 74 | 184 | 23.0 | 18.0 | 0.00 | 0.00 | 0.00 | 8 | |
| 20260904235141 | 75 | 204 | 22.0 | 24.0 | 0.00 | 0.00 | 0.00 | 8 | |
| 20260904234643 | 75 | 198 | 21.0 | 23.0 | 0.00 | 0.00 | 0.00 | 8 | |
| 20260904234145 | 75 | 188 | 20.0 | 19.0 | 0.00 | 0.00 | 0.00 | 8 | |
| 20260904233647 | 75 | 197 | 20.0 | 28.0 | 0.00 | 0.00 | 0.00 | 8 | |
| 20260904233150 | 75 | 188 | 23.0 | 21.0 | 0.00 | 0.00 | 0.00 | 8 | |
| 20260904232652 | 75 | 190 | 18.0 | 17.0 | 0.00 | 0.00 | 0.00 | 9 | |
| 20260904232151 | 76 | 184 | 21.0 | 24.0 | 0.00 | 0.00 | 0.00 | 8 | |
| 20260904231653 | 76 | 181 | 23.0 | 30.0 | 0.00 | 0.00 | 0.00 | 8 | |
| 20260904231155 | 76 | 184 | 16.0 | 12.0 | 0.00 | 0.00 | 0.00 | 6 | |
| 20260904230658 | 76 | 152 | 18.0 | 13.0 | 0.00 | 0.00 | 0.00 | 8 | |
| 20260904225702 | 76 | 177 | 20.0 | 15.0 | 0.00 | 0.00 | 0.00 | 8 | |
| 20260904225201 | 76 | 170 | 22.0 | 17.0 | 0.00 | 0.00 | 0.00 | 8 | |
| 20260904224703 | 76 | 177 | 20.0 | 21.0 | 0.00 | 0.00 | 0.00 | 7 | |
| 20260904224206 | 76 | 165 | 17.0 | 15.0 | 0.00 | 0.00 | 0.00 | 7 | |
| 20260904223708 | 76 | 186 | 21.0 | 18.0 | 0.00 | 0.00 | 0.00 | 6 | |
| 20260904223210 | 76 | 197 | 18.0 | 25.0 | 0.00 | 0.00 | 0.00 | 6 | |
| 20260904222212 | 76 | 195 | 22.0 | 18.0 | 0.00 | 0.00 | 0.00 | 6 | |
| 20260904221714 | 76 | 197 | 18.0 | 17.0 | 0.00 | 0.00 | 0.00 | 6 | |
| 20260904221335 | 76 | 208 | 19.0 | 9.0 | 0.00 | 0.00 | 0.00 | 6 | |
| 20260904221216 | 76 | 208 | 19.0 | 9.0 | 0.00 | 0.00 | 0.00 | 6 | |
| 20260904220718 | 77 | 188 | 17.0 | 23.0 | 0.00 | 0.00 | 0.00 | 6 | |
| 20260904220221 | 77 | 187 | 20.0 | 23.0 | 0.00 | 0.00 | 0.00 | 6 | |
| 20260904215723 | 77 | 194 | 17.0 | 13.0 | 0.00 | 0.00 | 0.00 | 6 | |
| 20260904215222 | 77 | 195 | 17.0 | 24.0 | 0.00 | 0.00 | 0.00 | 6 | |
| 20260904214724 | 77 | 203 | 16.0 | 10.0 | 0.00 | 0.00 | 0.00 | 6 | |
| 20260904214227 | 77 | 186 | 18.0 | 27.0 | 0.00 | 0.00 | 0.00 | 6 | |
| 20260904213729 | 78 | 200 | 21.0 | 7.0 | 0.00 | 0.00 | 0.00 | 6 | |
| 20260904213231 | 78 | 188 | 15.0 | 19.0 | 0.00 | 0.00 | 0.00 | 6 | |
| 20260904212733 | 78 | 193 | 15.0 | 13.0 | 0.00 | 0.00 | 0.00 | 6 | |
| 20260904212232 | 78 | 198 | 17.0 | 17.0 | 0.00 | 0.00 | 0.00 | 5 | |
| 20260904211735 | 78 | 210 | 12.0 | 16.0 | 0.00 | 0.00 | 0.00 | 6 | |
| 20260904211237 | 78 | 191 | 19.0 | 15.0 | 0.00 | 0.00 | 0.00 | 6 | |
| 20260904210739 | 78 | 207 | 14.0 | 17.0 | 0.00 | 0.00 | 0.00 | 5 | |
| 20260904210242 | 78 | 214 | 15.0 | 16.0 | 0.00 | 0.00 | 0.00 | 6 | |
| 20260904205744 | 78 | 184 | 9.0 | 18.0 | 0.00 | 0.00 | 0.00 | 5 | |
| 20260904205243 | 78 | 203 | 19.0 | 21.0 | 0.00 | 0.00 | 0.00 | 6 | |
| 20260904204745 | 77 | 205 | 12.0 | 10.0 | 0.00 | 0.00 | 0.00 | 6 | |
| 20260904204248 | 78 | 191 | 18.0 | 11.0 | 0.00 | 0.00 | 0.00 | 6 | |
| 20260904203750 | 78 | 181 | 19.0 | 19.0 | 0.00 | 0.00 | 0.00 | 6 | |
| 20260904203252 | 79 | 195 | 13.0 | 22.0 | 0.00 | 0.00 | 0.00 | 6 | |
| 20260904202754 | 79 | 212 | 14.0 | 19.0 | 0.00 | 0.00 | 0.00 | 5 | |
| 20260904202253 | 79 | 205 | 13.0 | 14.0 | 0.00 | 0.00 | 0.00 | 5 | |
| 20260904201756 | 80 | 195 | 12.0 | 10.0 | 0.00 | 0.00 | 0.00 | 5 | |
| 20260904201258 | 80 | 226 | 17.0 | 24.0 | 0.00 | 0.00 | 0.00 | 5 | |
| 20260904200800 | 79 | 236 | 0.0 | 8.0 | 0.00 | 0.00 | 0.00 | 5 | |
| 20260904200303 | 79 | 229 | 15.0 | 0.0 | 0.00 | 0.00 | 0.00 | 5 | |
| 20260904195805 | 79 | 225 | 5.0 | 15.0 | 0.00 | 0.00 | 0.00 | 5 | |
| 20260904195306 | 79 | 211 | 11.0 | 14.0 | 0.00 | 0.00 | 0.00 | 5 | |
| 20260904194806 | 78 | 248 | 1.0 | 5.0 | 0.00 | 0.00 | 0.00 | 6 | |
| 20260904193811 | 77 | 179 | 0.0 | 0.0 | 0.00 | 0.00 | 0.00 | 6 | |
| 20260904193313 | 77 | 204 | 0.0 | 0.0 | 0.00 | 0.00 | 0.00 | 6 | |
| 20260904192815 | 77 | 207 | 11.0 | 0.0 | 0.00 | 0.00 | 0.00 | 6 | |
| 20260904192314 | 76 | 218 | 7.0 | 0.0 | 0.00 | 0.00 | 0.00 | 6 | |
| 20260904191817 | 76 | 222 | 4.0 | 9.0 | 0.00 | 0.00 | 0.00 | 6 | |
| 20260904191319 | 75 | 183 | 8.0 | 4.0 | 0.00 | 0.00 | 0.00 | 6 | |
| 20260904190821 | 76 | 193 | 7.0 | 21.0 | 0.00 | 0.00 | 0.00 | 6 | |
| 20260904190324 | 76 | 204 | 9.0 | 9.0 | 0.00 | 0.00 | 0.00 | 6 | |
| 20260904185826 | 75 | 233 | 7.0 | 15.0 | 0.00 | 0.00 | 0.00 | 6 | |
| 20260904185325 | 75 | 221 | 6.0 | 10.0 | 0.00 | 0.00 | 0.00 | 6 | |
| 20260904184827 | 74 | 205 | 12.0 | 13.0 | 0.00 | 0.00 | 0.00 | 7 | |
| 20260904183832 | 74 | 211 | 9.0 | 0.0 | 0.00 | 0.00 | 0.00 | 6 | |
| 20260904183334 | 74 | 235 | 15.0 | 7.0 | 0.00 | 0.00 | 0.00 | 6 | |
| 20260904182837 | 73 | 214 | 15.0 | 0.0 | 0.00 | 0.00 | 0.00 | 6 | |
| 20260904182336 | 73 | 219 | 15.0 | 9.0 | 0.00 | 0.00 | 0.00 | 6 | |
| 20260904181838 | 73 | 179 | 11.0 | 3.0 | 0.00 | 0.00 | 0.00 | 6 | |
| 20260904181340 | 73 | 205 | 13.0 | 19.0 | 0.00 | 0.00 | 0.00 | 6 | |
| 20260904180843 | 73 | 208 | 10.0 | 17.0 | 0.00 | 0.00 | 0.00 | 6 | |
| 20260904175847 | 73 | 184 | 9.0 | 6.0 | 0.00 | 0.00 | 0.00 | 7 | |
| 20260904175346 | 73 | 236 | 12.0 | 16.0 | 0.00 | 0.00 | 0.00 | 6 | |
| 20260904174849 | 73 | 226 | 13.0 | 9.0 | 0.00 | 0.00 | 0.00 | 7 | |
| 20260904174352 | 73 | 239 | 0.0 | 0.0 | 0.00 | 0.00 | 0.00 | 7 | |
| 20260904173853 | 73 | 239 | 0.0 | 0.0 | 0.00 | 0.00 | 0.00 | 8 | |
| 20260904173356 | 72 | 226 | 0.0 | 0.0 | 0.00 | 0.00 | 0.00 | 9 | |
| 20260904172858 | 72 | 226 | 0.0 | 0.0 | 0.00 | 0.00 | 0.00 | 10 | |
| 20260904172357 | 72 | 229 | 10.0 | 12.0 | 0.00 | 0.00 | 0.00 | 11 | |
| 20260904171859 | 71 | 231 | 12.0 | 5.0 | 0.00 | 0.00 | 0.00 | 12 | |
| 20260904171401 | 71 | 224 | 10.0 | 10.0 | 0.00 | 0.00 | 0.00 | 13 | |
| 20260904170904 | 71 | 218 | 13.0 | 10.0 | 0.00 | 0.00 | 0.00 | 14 | |
| 20260904170406 | 70 | 239 | 5.0 | 12.0 | 0.00 | 0.00 | 0.00 | 16 | |
| 20260904165407 | 69 | 253 | 13.0 | 3.0 | 0.00 | 0.00 | 0.00 | 17 | |
| 20260904164911 | 69 | 235 | 12.0 | 13.0 | 0.00 | 0.00 | 0.00 | 17 | |
| 20260904164412 | 68 | 221 | 10.0 | 8.0 | 0.00 | 0.00 | 0.00 | 18 | |
| 20260904163915 | 68 | 231 | 11.0 | 8.0 | 0.00 | 0.00 | 0.00 | 19 | |
| 20260904163417 | 68 | 172 | 0.0 | 0.0 | 0.00 | 0.00 | 0.00 | 19 | |
| 20260904162919 | 68 | 215 | 9.0 | 7.0 | 0.00 | 0.00 | 0.00 | 21 | |
| 20260904162418 | 67 | 212 | 7.0 | 8.0 | 0.00 | 0.00 | 0.00 | 23 | |
| 20260904161920 | 67 | 172 | 11.0 | 12.0 | 0.00 | 0.00 | 0.00 | 25 | |
| 20260904161423 | 66 | 256 | 7.0 | 8.0 | 0.00 | 0.00 | 0.00 | 26 | |
| 20260904160925 | 66 | 194 | 9.0 | 5.0 | 0.00 | 0.00 | 0.00 | 28 | |
| 20260904160427 | 65 | 191 | 10.0 | 6.0 | 0.00 | 0.00 | 0.00 | 30 | |
| 20260904155930 | 65 | 233 | 7.0 | 11.0 | 0.00 | 0.00 | 0.00 | 33 | |
| 20260904155429 | 64 | 222 | 9.0 | 12.0 | 0.00 | 0.00 | 0.00 | 35 | |
| 20260904154434 | 63 | 208 | 9.0 | 8.0 | 0.00 | 0.00 | 0.00 | 39 | |
| 20260904153936 | 62 | 226 | 9.0 | 15.0 | 0.00 | 0.00 | 0.00 | 41 | |
| 20260904153438 | 62 | 219 | 11.0 | 10.0 | 0.00 | 0.00 | 0.00 | 42 | |
| 20260904152941 | 61 | 222 | 9.0 | 10.0 | 0.00 | 0.00 | 0.00 | 44 | |
| 20260904152440 | 61 | 222 | 12.0 | 12.0 | 0.00 | 0.00 | 0.00 | 48 | |
| 20260904151942 | 60 | 201 | 12.0 | 11.0 | 0.00 | 0.00 | 0.00 | 50 | |
| 20260904151444 | 60 | 233 | 11.0 | 9.0 | 0.00 | 0.00 | 0.00 | 54 | |
| 20260904150946 | 59 | 229 | 8.0 | 3.0 | 0.00 | 0.00 | 0.00 | 58 | |
| 20260904150449 | 59 | 229 | 10.0 | 13.0 | 0.00 | 0.00 | 0.00 | 61 | |
| 20260904145951 | 58 | 228 | 11.0 | 7.0 | 0.00 | 0.00 | 0.00 | 66 | |
| 20260904145450 | 58 | 207 | 9.0 | 9.0 | 0.00 | 0.00 | 0.00 | 70 | |
| 20260904144952 | 57 | 215 | 9.0 | 10.0 | 0.00 | 0.00 | 0.00 | 74 | |
| 20260904144455 | 57 | 207 | 1.0 | 9.0 | 0.00 | 0.00 | 0.00 | 79 | |
| 20260904143957 | 56 | 231 | 6.0 | 5.0 | 0.00 | 0.00 | 0.00 | 82 | |
| 20260904143459 | 56 | 246 | 12.0 | 8.0 | 0.00 | 0.00 | 0.00 | 86 | |
| 20260904143002 | 55 | 201 | 13.0 | 10.0 | 0.00 | 0.00 | 0.00 | 90 | |
| 20260904142501 | 55 | 222 | 11.0 | 12.0 | 0.00 | 0.00 | 0.00 | 91 | |
| 20260904142002 | 55 | 231 | 12.0 | 15.0 | 0.00 | 0.00 | 0.00 | 92 | |
| 20260904141504 | 55 | 203 | 15.0 | 17.0 | 0.00 | 0.00 | 0.00 | 93 | |
| 20260904141007 | 54 | 232 | 11.0 | 9.0 | 0.00 | 0.00 | 0.00 | 93 | |
| 20260904140509 | 54 | 231 | 9.0 | 10.0 | 0.00 | 0.00 | 0.00 | 93 | |
| 20260904140011 | 54 | 226 | 14.0 | 16.0 | 0.00 | 0.00 | 0.00 | 93 | |
| 20260904135510 | 54 | 257 | 14.0 | 16.0 | 0.00 | 0.00 | 0.00 | 93 | |
| 20260904134515 | 54 | 217 | 13.0 | 14.0 | 0.00 | 0.00 | 0.00 | 93 | |
| 20260904134017 | 54 | 243 | 12.0 | 10.0 | 0.00 | 0.00 | 0.00 | 92 | |
| 20260904133520 | 54 | 225 | 13.0 | 13.0 | 0.00 | 0.00 | 0.00 | 91 | |
| 20260904133023 | 54 | 211 | 9.0 | 11.0 | 0.00 | 0.00 | 0.00 | 91 | |
| 20260904132521 | 54 | 231 | 13.0 | 11.0 | 0.00 | 0.00 | 0.00 | 90 | |
| 20260904132024 | 54 | 217 | 12.0 | 13.0 | 0.00 | 0.00 | 0.00 | 90 | |
| 20260904131526 | 54 | 221 | 14.0 | 11.0 | 0.00 | 0.00 | 0.00 | 88 | |
| 20260904131028 | 54 | 232 | 10.0 | 9.0 | 0.00 | 0.00 | 0.00 | 88 | |
| 20260904130530 | 54 | 229 | 11.0 | 12.0 | 0.00 | 0.00 | 0.00 | 87 | |
| 20260904130033 | 54 | 207 | 14.0 | 15.0 | 0.00 | 0.00 | 0.00 | 86 | |
| 20260904125532 | 54 | 235 | 13.0 | 9.0 | 0.00 | 0.00 | 0.00 | 85 | |
| 20260904125034 | 54 | 224 | 14.0 | 13.0 | 0.00 | 0.00 | 0.00 | 84 | |
| 20260904124536 | 54 | 200 | 12.0 | 17.0 | 0.00 | 0.00 | 0.00 | 84 | |
| 20260904124039 | 54 | 198 | 13.0 | 14.0 | 0.00 | 0.00 | 0.00 | 83 | |
| 20260904123541 | 54 | 219 | 12.0 | 14.0 | 0.00 | 0.00 | 0.00 | 83 | |
| 20260904123043 | 54 | 226 | 14.0 | 12.0 | 0.00 | 0.00 | 0.00 | 83 | |
| 20260904122542 | 54 | 226 | 11.0 | 14.0 | 0.00 | 0.00 | 0.00 | 83 | |
| 20260904122045 | 54 | 215 | 14.0 | 13.0 | 0.00 | 0.00 | 0.00 | 82 | |
| 20260904121547 | 54 | 231 | 14.0 | 12.0 | 0.00 | 0.00 | 0.00 | 82 | |
| 20260904121049 | 54 | 229 | 12.0 | 12.0 | 0.00 | 0.00 | 0.00 | 81 | |
| 20260904120552 | 54 | 222 | 10.0 | 16.0 | 0.00 | 0.00 | 0.00 | 80 | |
| 20260904120054 | 54 | 205 | 12.0 | 12.0 | 0.00 | 0.00 | 0.00 | 80 | |
| 20260904115554 | 54 | 205 | 0.0 | 15.0 | 0.00 | 0.00 | 0.00 | 78 | |
| 20260904115055 | 54 | 207 | 13.0 | 13.0 | 0.00 | 0.00 | 0.00 | 77 | |
| 20260904114557 | 54 | 215 | 14.0 | 16.0 | 0.00 | 0.00 | 0.00 | 76 | |
| 20260904114100 | 54 | 217 | 13.0 | 13.0 | 0.00 | 0.00 | 0.00 | 74 | |
| 20260904113104 | 55 | 232 | 14.0 | 10.0 | 0.00 | 0.00 | 0.00 | 73 | |
| 20260904112603 | 55 | 228 | 13.0 | 8.0 | 0.00 | 0.00 | 0.00 | 72 | |
| 20260904112106 | 55 | 250 | 15.0 | 10.0 | 0.00 | 0.00 | 0.00 | 72 | |
| 20260904111608 | 55 | 207 | 16.0 | 14.0 | 0.00 | 0.00 | 0.00 | 71 | |
| 20260904111111 | 54 | 225 | 11.0 | 0.0 | 0.00 | 0.00 | 0.00 | 70 | |
| 20260904110613 | 55 | 226 | 13.0 | 12.0 | 0.00 | 0.00 | 0.00 | 69 | |
| 20260904110115 | 55 | 214 | 14.0 | 15.0 | 0.00 | 0.00 | 0.00 | 68 | |
| 20260904105614 | 55 | 215 | 13.0 | 16.0 | 0.00 | 0.00 | 0.00 | 66 | |
| 20260904105116 | 55 | 210 | 13.0 | 13.0 | 0.00 | 0.00 | 0.00 | 64 | |
| 20260904104619 | 55 | 211 | 14.0 | 16.0 | 0.00 | 0.00 | 0.00 | 62 | |
| 20260904104121 | 55 | 207 | 10.0 | 12.0 | 0.00 | 0.00 | 0.00 | 59 | |
| 20260904103623 | 56 | 229 | 11.0 | 7.0 | 0.00 | 0.00 | 0.00 | 57 | |
| 20260904103126 | 56 | 211 | 14.0 | 11.0 | 0.00 | 0.00 | 0.00 | 55 | |
| 20260904102127 | 57 | 222 | 13.0 | 15.0 | 0.00 | 0.00 | 0.00 | 50 | |
| 20260904101629 | 57 | 235 | 17.0 | 14.0 | 0.00 | 0.00 | 0.00 | 48 | |
| 20260904101132 | 57 | 222 | 11.0 | 14.0 | 0.00 | 0.00 | 0.00 | 47 | |
| 20260904100634 | 57 | 212 | 13.0 | 16.0 | 0.00 | 0.00 | 0.00 | 46 | |
| 20260904100136 | 57 | 214 | 12.0 | 13.0 | 0.00 | 0.00 | 0.00 | 45 | |
| 20260904095635 | 57 | 211 | 14.0 | 15.0 | 0.00 | 0.00 | 0.00 | 44 | |
| 20260904095138 | 58 | 215 | 12.0 | 8.0 | 0.00 | 0.00 | 0.00 | 44 | |
| 20260904094640 | 58 | 217 | 10.0 | 15.0 | 0.00 | 0.00 | 0.00 | 44 | |
| 20260904094143 | 0 | 214 | 11.0 | 14.0 | 0.00 | 0.00 | 0.00 | 43 | |
| 20260904093644 | 58 | 210 | 12.0 | 6.0 | 0.00 | 0.00 | 0.00 | 43 | |
| 20260904093148 | 58 | 211 | 14.0 | 13.0 | 0.00 | 0.00 | 0.00 | 43 | |
| 20260904092646 | 58 | 207 | 13.0 | 19.0 | 0.00 | 0.00 | 0.00 | 43 | |
| 20260904092148 | 58 | 219 | 12.0 | 15.0 | 0.00 | 0.00 | 0.00 | 44 | |
| 20260904091650 | 58 | 228 | 13.0 | 11.0 | 0.00 | 0.00 | 0.00 | 44 | |
| 20260904091153 | 58 | 219 | 13.0 | 13.0 | 0.00 | 0.00 | 0.00 | 45 | |
| 20260904090655 | 58 | 200 | 14.0 | 11.0 | 0.00 | 0.00 | 0.00 | 45 | |
| 20260904090157 | 58 | 215 | 12.0 | 15.0 | 0.00 | 0.00 | 0.00 | 45 | |
| 20260904085656 | 57 | 205 | 11.0 | 13.0 | 0.00 | 0.00 | 0.00 | 45 | |
| 20260904085159 | 58 | 217 | 10.0 | 13.0 | 0.00 | 0.00 | 0.00 | 45 | |
| 20260904084701 | 58 | 190 | 12.0 | 10.0 | 0.00 | 0.00 | 0.00 | 45 | |
| 20260904084203 | 58 | 214 | 11.0 | 11.0 | 0.00 | 0.00 | 0.00 | 45 | |
| 20260904083705 | 58 | 221 | 14.0 | 9.0 | 0.00 | 0.00 | 0.00 | 45 | |
| 20260904083208 | 58 | 221 | 14.0 | 13.0 | 0.00 | 0.00 | 0.00 | 44 | |
| 20260904082753 | 58 | 228 | 13.0 | 19.0 | 0.00 | 0.00 | 0.00 | 44 | |
| 20260904082707 | 58 | 228 | 13.0 | 19.0 | 0.00 | 0.00 | 0.00 | 44 | |
| 20260904082209 | 58 | 224 | 13.0 | 9.0 | 0.00 | 0.00 | 0.00 | 44 | |
| 20260904081711 | 59 | 197 | 14.0 | 17.0 | 0.00 | 0.00 | 0.00 | 44 | |
| 20260904081214 | 59 | 211 | 15.0 | 18.0 | 0.00 | 0.00 | 0.00 | 44 | |
| 20260904080716 | 58 | 222 | 15.0 | 17.0 | 0.00 | 0.00 | 0.00 | 44 | |
| 20260904080218 | 59 | 210 | 14.0 | 16.0 | 0.00 | 0.00 | 0.00 | 44 | |
| 20260904075717 | 59 | 212 | 13.0 | 15.0 | 0.00 | 0.00 | 0.00 | 44 | |
| 20260904075220 | 59 | 208 | 14.0 | 8.0 | 0.00 | 0.00 | 0.00 | 44 | |
| 20260904074722 | 59 | 232 | 10.0 | 15.0 | 0.00 | 0.00 | 0.00 | 43 | |
| 20260904074224 | 59 | 222 | 14.0 | 8.0 | 0.00 | 0.00 | 0.00 | 43 | |
| 20260904073727 | 60 | 232 | 12.0 | 9.0 | 0.00 | 0.00 | 0.00 | 42 | |
| 20260904073229 | 60 | 224 | 12.0 | 8.0 | 0.00 | 0.00 | 0.00 | 41 | |
| 20260904072729 | 60 | 193 | 15.0 | 11.0 | 0.00 | 0.00 | 0.00 | 40 | |
| 20260904072231 | 60 | 211 | 14.0 | 18.0 | 0.00 | 0.00 | 0.00 | 40 | |
| 20260904071732 | 60 | 217 | 17.0 | 12.0 | 0.00 | 0.00 | 0.00 | 40 | |
| 20260904071235 | 60 | 225 | 15.0 | 18.0 | 0.00 | 0.00 | 0.00 | 39 | |
| 20260904070737 | 59 | 226 | 17.0 | 19.0 | 0.00 | 0.00 | 0.00 | 39 | |
| 20260904070239 | 59 | 218 | 18.0 | 18.0 | 0.00 | 0.00 | 0.00 | 39 | |
| 20260904065737 | 59 | 219 | 12.0 | 16.0 | 0.00 | 0.00 | 0.00 | 40 | |
| 20260904065240 | 59 | 176 | 11.0 | 9.0 | 0.00 | 0.00 | 0.00 | 40 | |
| 20260904064742 | 59 | 188 | 14.0 | 12.0 | 0.00 | 0.00 | 0.00 | 39 | |
| 20260904064244 | 60 | 200 | 13.0 | 17.0 | 0.00 | 0.00 | 0.00 | 40 | |
| 20260904063747 | 60 | 207 | 12.0 | 14.0 | 0.00 | 0.00 | 0.00 | 39 | |
| 20260904063249 | 60 | 205 | 10.0 | 15.0 | 0.00 | 0.00 | 0.00 | 39 | |
| 20260904062748 | 60 | 198 | 7.0 | 9.0 | 0.00 | 0.00 | 0.00 | 38 | |
| 20260904062250 | 60 | 219 | 11.0 | 11.0 | 0.00 | 0.00 | 0.00 | 38 | |
| 20260904061753 | 61 | 208 | 11.0 | 11.0 | 0.00 | 0.00 | 0.00 | 38 | |
| 20260904061255 | 61 | 218 | 11.0 | 9.0 | 0.00 | 0.00 | 0.00 | 37 | |
| 20260904060757 | 61 | 214 | 15.0 | 13.0 | 0.00 | 0.00 | 0.00 | 37 | |
| 20260904060259 | 61 | 215 | 13.0 | 14.0 | 0.00 | 0.00 | 0.00 | 38 | |
| 20260904055758 | 61 | 205 | 12.0 | 13.0 | 0.00 | 0.00 | 0.00 | 38 | |
| 20260904055301 | 61 | 198 | 14.0 | 18.0 | 0.00 | 0.00 | 0.00 | 38 | |
| 20260904054803 | 61 | 219 | 13.0 | 14.0 | 0.00 | 0.00 | 0.00 | 37 | |
| 20260904054305 | 61 | 170 | 12.0 | 16.0 | 0.00 | 0.00 | 0.00 | 37 | |
| 20260904053808 | 61 | 183 | 15.0 | 13.0 | 0.00 | 0.00 | 0.00 | 36 | |
| 20260904053310 | 61 | 205 | 15.0 | 13.0 | 0.00 | 0.00 | 0.00 | 36 | |
| 20260904052809 | 61 | 180 | 14.0 | 12.0 | 0.00 | 0.00 | 0.00 | 36 | |
| 20260904052311 | 61 | 212 | 16.0 | 10.0 | 0.00 | 0.00 | 0.00 | 36 | |
| 20260904051813 | 61 | 187 | 12.0 | 9.0 | 0.00 | 0.00 | 0.00 | 37 | |
| 20260904051316 | 62 | 197 | 12.0 | 9.0 | 0.00 | 0.00 | 0.00 | 37 | |
| 20260904050818 | 62 | 183 | 11.0 | 15.0 | 0.00 | 0.00 | 0.00 | 36 | |
| 20260904050320 | 62 | 186 | 11.0 | 9.0 | 0.00 | 0.00 | 0.00 | 36 | |
| 20260904045819 | 62 | 201 | 14.0 | 16.0 | 0.00 | 0.00 | 0.00 | 36 | |
| 20260904045322 | 62 | 214 | 12.0 | 10.0 | 0.00 | 0.00 | 0.00 | 36 | |
| 20260904044824 | 62 | 215 | 15.0 | 16.0 | 0.00 | 0.00 | 0.00 | 36 | |
| 20260904044326 | 62 | 188 | 10.0 | 12.0 | 0.00 | 0.00 | 0.00 | 36 | |
| 20260904043829 | 62 | 203 | 13.0 | 11.0 | 0.00 | 0.00 | 0.00 | 35 | |
| 20260904043331 | 63 | 203 | 12.0 | 17.0 | 0.00 | 0.00 | 0.00 | 35 | |
| 20260904042830 | 63 | 221 | 13.0 | 13.0 | 0.00 | 0.00 | 0.00 | 35 |